Time,TemperatureF,DewpointF,PressureIn,WindDirection,WindDirectionDegrees,WindSpeedMPH,WindSpeedGustMPH,Humidity,HourlyPrecipIn,Conditions,Clouds,dailyrainin,SolarRadiationWatts/m^2,SoftwareType,DateUTC
2013-09-05 00:22:00,53.0,46.0,-100.00,East,86,3.0,4.0,78,0.00,,,0.00,1.000000,,2013-09-05 07:22:00,
2013-09-05 00:32:00,53.0,46.0,-100.00,East,86,3.0,4.0,78,0.00,,,0.00,1.000000,,2013-09-05 07:32:00,
2013-09-05 00:42:00,53.0,46.0,-100.00,East,86,3.0,4.0,78,0.00,,,0.00,1.000000,,2013-09-05 07:42:00,
2013-09-05 00:52:00,53.0,46.0,-100.00,East,86,3.0,4.0,78,0.00,,,0.00,1.000000,,2013-09-05 07:52:00,
2013-09-05 01:21:00,53.0,46.0,-100.00,NNE,27,3.0,4.0,76,0.00,,,0.00,1.000000,,2013-09-05 08:21:00,
2013-09-05 01:32:00,53.0,46.0,-100.00,NNE,27,3.0,4.0,76,0.00,,,0.00,1.000000,,2013-09-05 08:32:00,
2013-09-05 01:42:00,53.0,46.0,-100.00,NNE,27,3.0,4.0,76,0.00,,,0.00,1.000000,,2013-09-05 08:42:00,
2013-09-05 01:52:00,53.0,46.0,-100.00,NNE,27,3.0,4.0,76,0.00,,,0.00,1.000000,,2013-09-05 08:52:00,
2013-09-05 02:22:00,51.0,46.0,-100.00,ENE,77,3.0,5.0,82,0.00,,,0.00,1.000000,,2013-09-05 09:22:00,
2013-09-05 02:33:00,51.0,46.0,-100.00,ENE,77,3.0,5.0,82,0.00,,,0.00,1.000000,,2013-09-05 09:33:00,
2013-09-05 02:43:00,51.0,46.0,-100.00,ENE,77,3.0,5.0,82,0.00,,,0.00,1.000000,,2013-09-05 09:43:00,
2013-09-05 02:53:00,51.0,46.0,-100.00,ENE,77,3.0,5.0,82,0.00,,,0.00,1.000000,,2013-09-05 09:53:00,
2013-09-05 03:23:00,49.0,45.0,-100.00,ENE,77,4.0,6.0,86,0.00,,,0.00,1.000000,,2013-09-05 10:23:00,
2013-09-05 03:32:00,49.0,45.0,-100.00,ENE,77,4.0,6.0,86,0.00,,,0.00,1.000000,,2013-09-05 10:32:00,
2013-09-05 03:42:00,49.0,45.0,-100.00,ENE,77,4.0,6.0,86,0.00,,,0.00,1.000000,,2013-09-05 10:42:00,
2013-09-05 03:53:00,49.0,45.0,-100.00,ENE,77,4.0,6.0,86,0.00,,,0.00,1.000000,,2013-09-05 10:53:00,
2013-09-05 04:21:00,49.0,46.0,-100.00,ENE,61,4.0,6.0,89,0.00,,,0.00,1.000000,,2013-09-05 11:21:00,
2013-09-05 04:33:00,49.0,46.0,-100.00,ENE,61,4.0,6.0,89,0.00,,,0.00,1.000000,,2013-09-05 11:33:00,
2013-09-05 04:42:00,49.0,46.0,-100.00,ENE,61,4.0,6.0,89,0.00,,,0.00,1.000000,,2013-09-05 11:42:00,
2013-09-05 04:52:00,49.0,46.0,-100.00,ENE,61,4.0,6.0,89,0.00,,,0.00,1.000000,,2013-09-05 11:52:00,
2013-09-05 05:21:00,47.0,45.0,-100.00,ENE,75,4.0,6.0,93,0.00,,,0.00,1.000000,,2013-09-05 12:21:00,
2013-09-05 05:32:00,47.0,45.0,-100.00,ENE,75,4.0,6.0,93,0.00,,,0.00,1.000000,,2013-09-05 12:32:00,
2013-09-05 05:42:00,47.0,45.0,-100.00,ENE,75,4.0,6.0,93,0.00,,,0.00,1.000000,,2013-09-05 12:42:00,
2013-09-05 05:52:00,47.0,45.0,-100.00,ENE,75,4.0,6.0,93,0.00,,,0.00,1.000000,,2013-09-05 12:52:00,
2013-09-05 06:21:00,47.0,46.0,-100.00,ENE,66,4.0,7.0,97,0.00,,,0.00,1.000000,,2013-09-05 13:21:00,
2013-09-05 06:32:00,47.0,46.0,-100.00,ENE,66,4.0,7.0,97,0.00,,,0.00,1.000000,,2013-09-05 13:32:00,
2013-09-05 06:42:00,47.0,46.0,-100.00,ENE,66,4.0,7.0,97,0.00,,,0.00,1.000000,,2013-09-05 13:42:00,
2013-09-05 06:52:00,47.0,46.0,-100.00,ENE,66,4.0,7.0,97,0.00,,,0.00,1.000000,,2013-09-05 13:52:00,
2013-09-05 07:22:00,45.0,44.0,-100.00,ENE,62,3.0,7.0,98,0.00,,,0.00,4.000000,,2013-09-05 14:22:00,
2013-09-05 07:32:00,45.0,44.0,-100.00,ENE,62,3.0,7.0,98,0.00,,,0.00,4.000000,,2013-09-05 14:32:00,
2013-09-05 07:42:00,45.0,44.0,-100.00,ENE,62,3.0,7.0,98,0.00,,,0.00,4.000000,,2013-09-05 14:42:00,
2013-09-05 07:52:00,45.0,44.0,-100.00,ENE,62,3.0,7.0,98,0.00,,,0.00,4.000000,,2013-09-05 14:52:00,
2013-09-05 08:22:00,51.0,48.0,-100.00,NE,36,5.0,7.0,88,0.00,,,0.00,100.000000,,2013-09-05 15:22:00,
2013-09-05 08:33:00,51.0,48.0,-100.00,NE,36,5.0,7.0,88,0.00,,,0.00,100.000000,,2013-09-05 15:33:00,
2013-09-05 08:43:00,51.0,48.0,-100.00,NE,36,5.0,7.0,88,0.00,,,0.00,100.000000,,2013-09-05 15:43:00,
2013-09-05 08:54:00,51.0,48.0,-100.00,NE,36,5.0,7.0,88,0.00,,,0.00,100.000000,,2013-09-05 15:54:00,
2013-09-05 09:24:00,55.0,48.0,-100.00,NE,53,4.0,8.0,76,0.00,,,0.00,192.000000,,2013-09-05 16:24:00,
2013-09-05 09:32:00,55.0,48.0,-100.00,NE,53,4.0,8.0,76,0.00,,,0.00,192.000000,,2013-09-05 16:32:00,
2013-09-05 09:43:00,55.0,48.0,-100.00,NE,53,4.0,8.0,76,0.00,,,0.00,192.000000,,2013-09-05 16:43:00,
2013-09-05 09:54:00,55.0,48.0,-100.00,NE,53,4.0,8.0,76,0.00,,,0.00,192.000000,,2013-09-05 16:54:00,
2013-09-05 10:52:00,63.0,49.0,-100.00,NNW,332,3.0,8.0,61,0.00,,,0.00,455.000000,,2013-09-05 17:52:00,
2013-09-05 11:21:00,66.0,50.0,-100.00,WSW,254,8.0,14.0,56,0.00,,,0.00,560.000000,,2013-09-05 18:21:00,
2013-09-05 11:32:00,66.0,50.0,-100.00,WSW,254,8.0,14.0,56,0.00,,,0.00,560.000000,,2013-09-05 18:32:00,
2013-09-05 11:42:00,66.0,50.0,-100.00,WSW,254,8.0,14.0,56,0.00,,,0.00,560.000000,,2013-09-05 18:42:00,
2013-09-05 11:52:00,66.0,50.0,-100.00,WSW,254,8.0,14.0,56,0.00,,,0.00,560.000000,,2013-09-05 18:52:00,
2013-09-05 12:21:00,68.0,49.0,-100.00,South,191,7.0,14.0,51,0.00,,,0.00,674.000000,,2013-09-05 19:21:00,
2013-09-05 12:32:00,68.0,49.0,-100.00,South,191,7.0,14.0,51,0.00,,,0.00,674.000000,,2013-09-05 19:32:00,
2013-09-05 12:42:00,68.0,49.0,-100.00,South,191,7.0,14.0,51,0.00,,,0.00,674.000000,,2013-09-05 19:42:00,
2013-09-05 12:52:00,68.0,49.0,-100.00,South,191,7.0,14.0,51,0.00,,,0.00,674.000000,,2013-09-05 19:52:00,
2013-09-05 13:42:00,55.0,51.0,-100.00,WSW,245,5.0,21.0,86,0.09,,,0.09,150.000000,,2013-09-05 20:42:00,
2013-09-05 13:52:00,55.0,51.0,-100.00,WSW,245,5.0,21.0,86,0.09,,,0.09,150.000000,,2013-09-05 20:52:00,
2013-09-05 14:21:00,58.0,52.0,-100.00,NW,310,10.0,17.0,80,-99.99,,,0.10,496.000000,,2013-09-05 21:21:00,
2013-09-05 14:34:00,58.0,52.0,-100.00,NW,310,10.0,17.0,80,-99.99,,,0.10,496.000000,,2013-09-05 21:34:00,
2013-09-05 14:44:00,58.0,52.0,-100.00,NW,310,10.0,17.0,80,-99.99,,,0.10,496.000000,,2013-09-05 21:44:00,
2013-09-05 14:53:00,58.0,52.0,-100.00,NW,310,10.0,17.0,80,-99.99,,,0.10,496.000000,,2013-09-05 21:53:00,
2013-09-05 15:24:00,59.0,51.0,-100.00,North,9,4.0,15.0,76,0.00,,,0.10,98.000000,,2013-09-05 22:24:00,
2013-09-05 15:33:00,59.0,51.0,-100.00,North,9,4.0,15.0,76,0.00,,,0.10,98.000000,,2013-09-05 22:33:00,
2013-09-05 15:43:00,59.0,51.0,-100.00,North,9,4.0,15.0,76,0.00,,,0.10,98.000000,,2013-09-05 22:43:00,
2013-09-05 15:53:00,59.0,51.0,-100.00,North,9,4.0,15.0,76,0.00,,,0.10,98.000000,,2013-09-05 22:53:00,
2013-09-05 16:22:00,64.0,43.0,-100.00,WNW,282,14.0,24.0,47,0.00,,,0.10,541.000000,,2013-09-05 23:22:00,
2013-09-05 16:34:00,64.0,43.0,-100.00,WNW,282,14.0,24.0,47,0.00,,,0.10,541.000000,,2013-09-05 23:34:00,
2013-09-05 16:42:00,64.0,43.0,-100.00,WNW,282,14.0,24.0,47,0.00,,,0.10,541.000000,,2013-09-05 23:42:00,
2013-09-05 16:53:00,64.0,43.0,-100.00,WNW,282,14.0,24.0,47,0.00,,,0.10,541.000000,,2013-09-05 23:53:00,
2013-09-05 17:22:00,63.0,41.0,-100.00,West,262,14.0,25.0,44,0.00,,,0.10,479.000000,,2013-09-06 00:22:00,
2013-09-05 17:33:00,63.0,41.0,-100.00,West,262,14.0,25.0,44,0.00,,,0.10,479.000000,,2013-09-06 00:33:00,
2013-09-05 17:42:00,63.0,41.0,-100.00,West,262,14.0,25.0,44,0.00,,,0.10,479.000000,,2013-09-06 00:42:00,
2013-09-05 17:52:00,63.0,41.0,-100.00,West,262,14.0,25.0,44,0.00,,,0.10,479.000000,,2013-09-06 00:52:00,
2013-09-05 18:22:00,55.0,40.0,-100.00,WNW,299,12.0,32.0,57,0.00,,,0.10,345.000000,,2013-09-06 01:22:00,
2013-09-05 18:32:00,55.0,40.0,-100.00,WNW,299,12.0,32.0,57,0.00,,,0.10,345.000000,,2013-09-06 01:32:00,
2013-09-05 18:42:00,55.0,40.0,-100.00,WNW,299,12.0,32.0,57,0.00,,,0.10,345.000000,,2013-09-06 01:42:00,
2013-09-05 18:52:00,55.0,40.0,-100.00,WNW,299,12.0,32.0,57,0.00,,,0.10,345.000000,,2013-09-06 01:52:00,
2013-09-05 19:22:00,55.0,41.0,-100.00,WNW,284,8.0,14.0,59,0.00,,,0.10,183.000000,,2013-09-06 02:22:00,
2013-09-05 19:32:00,55.0,41.0,-100.00,WNW,284,8.0,14.0,59,0.00,,,0.10,183.000000,,2013-09-06 02:32:00,
2013-09-05 19:42:00,55.0,41.0,-100.00,WNW,284,8.0,14.0,59,0.00,,,0.10,183.000000,,2013-09-06 02:42:00,
2013-09-05 19:52:00,55.0,41.0,-100.00,WNW,284,8.0,14.0,59,0.00,,,0.10,183.000000,,2013-09-06 02:52:00,
2013-09-05 20:22:00,51.0,41.0,-100.00,NNW,341,4.0,15.0,69,0.00,,,0.10,26.000000,,2013-09-06 03:22:00,
2013-09-05 20:34:00,51.0,41.0,-100.00,NNW,341,4.0,15.0,69,0.00,,,0.10,26.000000,,2013-09-06 03:34:00,
2013-09-05 20:44:00,51.0,41.0,-100.00,NNW,341,4.0,15.0,69,0.00,,,0.10,26.000000,,2013-09-06 03:44:00,
2013-09-05 20:55:00,51.0,41.0,-100.00,NNW,341,4.0,15.0,69,0.00,,,0.10,26.000000,,2013-09-06 03:55:00,
2013-09-05 21:23:00,49.0,41.0,-100.00,NE,41,3.0,8.0,74,0.00,,,0.10,1.000000,,2013-09-06 04:23:00,
2013-09-05 21:34:00,49.0,41.0,-100.00,NE,41,3.0,8.0,74,0.00,,,0.10,1.000000,,2013-09-06 04:34:00,
2013-09-05 21:44:00,49.0,41.0,-100.00,NE,41,3.0,8.0,74,0.00,,,0.10,1.000000,,2013-09-06 04:44:00,
2013-09-05 21:54:00,49.0,41.0,-100.00,NE,41,3.0,8.0,74,0.00,,,0.10,1.000000,,2013-09-06 04:54:00,
2013-09-05 22:23:00,47.0,41.0,-100.00,ESE,102,1.0,4.0,80,0.00,,,0.10,1.000000,,2013-09-06 05:23:00,
2013-09-05 22:34:00,47.0,41.0,-100.00,ESE,102,1.0,4.0,80,0.00,,,0.10,1.000000,,2013-09-06 05:34:00,
2013-09-05 22:42:00,47.0,41.0,-100.00,ESE,102,1.0,4.0,80,0.00,,,0.10,1.000000,,2013-09-06 05:42:00,
2013-09-05 22:52:00,47.0,41.0,-100.00,ESE,102,1.0,4.0,80,0.00,,,0.10,1.000000,,2013-09-06 05:52:00,
2013-09-05 23:21:00,46.0,41.0,-100.00,NE,56,3.0,4.0,83,0.00,,,0.10,1.000000,,2013-09-06 06:21:00,
2013-09-05 23:32:00,46.0,41.0,-100.00,NE,56,3.0,4.0,83,0.00,,,0.10,1.000000,,2013-09-06 06:32:00,
2013-09-05 23:42:00,46.0,41.0,-100.00,NE,56,3.0,4.0,83,0.00,,,0.10,1.000000,,2013-09-06 06:42:00,
2013-09-05 23:52:00,46.0,41.0,-100.00,NE,56,3.0,4.0,83,0.00,,,0.10,1.000000,,2013-09-06 06:52:00,